Stations météo

réclame
Mon MeteoGroup
Bierset/Liege, Belgique (6478): Température de l'air & dewpoint: 18.04.2018 10:00:00 - 24.04.2018 10:00:00 (CEST)Bierset/Liege, Belgique (6478): Vitesse du vent & gusts: 18.04.2018 10:00:00 - 24.04.2018 10:00:00 (CEST)Bierset/Liege, Belgique (6478): Direction du vent: 18.04.2018 10:00:00 - 24.04.2018 10:00:00 (CEST)Bierset/Liege, Belgique (6478): reduced air pressure: 18.04.2018 10:00:00 - 24.04.2018 10:00:00 (CEST)Bierset/Liege, Belgique (6478): visibility: 18.04.2018 10:00:00 - 24.04.2018 10:00:00 (CEST)
Date & Time tt [°C] td [°C] ff [km/h] ff [knt] fx [km/h] fx [knt] dd ppp [hPa] vv [km]
24.04.2018 10:00:00 10,0 6,5 18 10 29 16 SSW 1018,5 25
24.04.2018 09:00:00 9,3 5,8 16 9 32 18 SW 1018,6 10
24.04.2018 08:00:00 8,7 5,6 21 11 - - SSW 1018,4 10
24.04.2018 07:00:00 7,9 5,3 21 11 32 18 SSW 1018,0 10
24.04.2018 06:00:00 7,5 5,2 21 11 29 16 SW 1018,2 10
24.04.2018 05:00:00 7,9 5,2 21 11 - - SW 1018,5 10
24.04.2018 04:00:00 8,0 5,1 18 10 25 14 SSW 1018,6 10
24.04.2018 03:00:00 8,2 5,3 16 9 25 14 SSW 1018,7 10
24.04.2018 02:00:00 8,0 5,3 14 8 - - W 1019,5 30
24.04.2018 01:00:00 8,8 6,4 11 6 25 14 W 1019,3 10
24.04.2018 00:00:00 10,2 6,6 16 9 25 14 WSW 1018,8 10
23.04.2018 23:00:00 11,3 6,2 13 7 - - WSW 1018,5 10
23.04.2018 22:00:00 11,9 6,7 15 8 22 12 W 1018,3 10
23.04.2018 21:00:00 13,0 6,5 15 8 29 16 WSW 1017,5 10
23.04.2018 20:00:00 14,7 6,7 22 12 - - W 1017,2 25
23.04.2018 19:00:00 15,7 6,6 22 12 36 19 W 1017,1 25
23.04.2018 18:00:00 17,2 6,5 25 14 36 19 W 1016,9 25
23.04.2018 17:00:00 17,6 7,4 22 12 - - W 1016,7 25
23.04.2018 16:00:00 16,8 7,2 18 10 32 18 W 1016,8 25
23.04.2018 15:00:00 16,7 7,4 22 12 32 18 WSW 1017,1 25
23.04.2018 14:00:00 16,5 8,0 22 12 - - WSW 1017,2 25
23.04.2018 13:00:00 15,8 9,1 22 12 32 18 W 1017,2 25
23.04.2018 12:00:00 15,1 9,2 22 12 32 18 W 1017,1 22
23.04.2018 11:00:00 14,1 9,1 14 8 - - WSW 1016,7 20
23.04.2018 10:00:00 12,8 9,2 16 9 22 12 WSW 1016,3 10
23.04.2018 09:00:00 12,2 9,1 14 8 25 14 W 1016,0 20
23.04.2018 08:00:00 12,4 9,2 14 8 - - WSW 1015,4 20
23.04.2018 07:00:00 12,6 11,0 11 6 22 12 WSW 1014,7 15
23.04.2018 06:00:00 12,9 11,0 14 8 25 14 SW 1014,2 15
23.04.2018 05:00:00 13,4 11,6 22 12 - - SW 1014,2 15
23.04.2018 04:00:00 14,1 12,3 18 10 25 14 SW 1013,9 13
23.04.2018 03:00:00 15,0 13,2 15 8 29 16 SW 1013,4 10
23.04.2018 02:00:00 14,4 13,5 8 4 - - SW 1013,1 10
23.04.2018 01:00:00 16,2 13,0 16 9 43 23 SSW 1012,7 4,0
23.04.2018 00:00:00 18,7 10,8 16 9 22 12 SW 1012,2 10
22.04.2018 23:00:00 19,8 10,9 18 10 - - SSW 1011,8 10
22.04.2018 22:00:00 20,5 10,7 13 7 22 12 SSW 1011,4 10
22.04.2018 21:00:00 20,4 10,9 16 9 36 19 SW 1010,9 10
22.04.2018 20:00:00 22,7 9,9 25 14 - - WSW 1010,4 20
22.04.2018 19:00:00 23,5 10,2 29 16 47 25 WSW 1009,9 20
22.04.2018 18:00:00 24,0 11,7 29 16 50 27 WSW 1009,9 20
22.04.2018 17:00:00 25,4 9,8 36 19 - - SW 1009,6 20
22.04.2018 16:00:00 25,6 10,7 32 18 47 25 SSW 1009,9 20
22.04.2018 15:00:00 25,2 10,7 25 14 36 19 S 1010,3 20
22.04.2018 14:00:00 24,0 11,3 21 11 - - S 1011,0 10
22.04.2018 13:00:00 21,6 14,4 22 12 32 18 SW 1012,0 10
22.04.2018 12:00:00 22,8 12,1 8 4 22 12 SSE 1012,1 10
22.04.2018 11:00:00 20,9 12,8 13 7 - - WSW 1013,3 10
22.04.2018 10:00:00 20,2 11,3 11 6 29 16 SSE 1013,3 10
22.04.2018 09:00:00 18,0 10,7 11 6 29 16 SSE 1013,5 10
22.04.2018 08:00:00 16,7 9,9 14 8 - - S 1013,6 12
22.04.2018 07:00:00 15,3 9,6 14 8 25 14 SSE 1013,7 12
22.04.2018 06:00:00 15,7 9,6 14 8 22 12 S 1014,0 12
22.04.2018 05:00:00 14,9 9,5 4 2 - - SSW 1014,7 12
22.04.2018 04:00:00 15,8 10,3 7 4 22 12 SSE 1015,0 12
22.04.2018 03:00:00 15,8 10,0 11 6 14 8 ESE 1015,3 12
22.04.2018 02:00:00 16,1 11,1 9 5 - - SE 1016,1 10
22.04.2018 01:00:00 17,1 10,3 8 4 14 8 E 1016,7 10
22.04.2018 00:00:00 17,6 10,2 11 6 18 10 E 1017,5 10
21.04.2018 23:00:00 18,8 10,3 11 6 - - ENE 1017,8 10
21.04.2018 22:00:00 19,0 10,4 13 7 29 16 ENE 1017,9 10
21.04.2018 21:00:00 19,0 10,3 11 6 22 12 ENE 1018,0 10
21.04.2018 20:00:00 20,6 10,2 14 8 - - NE 1017,9 12
21.04.2018 19:00:00 21,6 10,9 14 8 22 12 NE 1018,1 10
21.04.2018 18:00:00 22,3 11,7 14 8 22 12 NNE 1018,6 10
21.04.2018 17:00:00 22,4 12,0 11 6 - - NNE 1019,1 9
21.04.2018 16:00:00 22,5 12,3 11 6 22 12 NNE 1019,8 9
21.04.2018 15:00:00 21,8 11,8 11 6 22 12 NNE 1020,4 8
21.04.2018 14:00:00 20,7 11,7 13 7 - - NNE 1021,0 6
21.04.2018 13:00:00 20,2 12,7 9 5 14 8 NNE 1021,6 4,8
21.04.2018 12:00:00 18,3 12,6 8 4 14 8 N 1022,3 4,5
21.04.2018 11:00:00 16,3 12,3 4 2 - - - 1022,6 3,4
21.04.2018 10:00:00 14,4 11,8 4 2 7 4 - 1022,7 2,4
21.04.2018 09:00:00 12,5 11,1 5 3 11 6 N 1022,7 2,0
21.04.2018 08:00:00 11,8 10,5 4 2 - - NW 1022,7 2,0
21.04.2018 07:00:00 11,6 10,0 4 2 7 4 WNW 1022,3 2,2
21.04.2018 06:00:00 12,7 10,1 5 3 7 4 WSW 1021,7 3,8
21.04.2018 05:00:00 12,6 10,8 4 2 - - WNW 1022,0 3,8
21.04.2018 04:00:00 14,0 10,3 4 2 11 6 WNW 1022,0 6
21.04.2018 03:00:00 14,4 9,2 7 4 11 6 NW 1022,3 10
21.04.2018 02:00:00 15,8 8,0 2 1 - - - 1022,5 10
21.04.2018 01:00:00 16,9 9,3 5 3 4 2 W 1022,5 10
21.04.2018 00:00:00 17,4 9,5 4 2 7 4 WNW 1022,5 10
20.04.2018 23:00:00 18,3 9,8 5 3 - - N 1022,3 10
20.04.2018 22:00:00 19,1 11,2 9 5 14 8 NNW 1022,0 10
20.04.2018 21:00:00 21,0 12,2 9 5 14 8 NNW 1021,4 10
20.04.2018 20:00:00 23,4 11,0 9 5 - - NNW 1020,9 10
20.04.2018 19:00:00 25,1 10,5 11 6 18 10 WNW 1020,9 30
20.04.2018 18:00:00 26,0 10,4 11 6 22 12 WNW 1021,1 30
20.04.2018 17:00:00 25,9 9,6 11 6 - - W 1021,5 30
20.04.2018 16:00:00 26,2 11,2 11 6 25 14 W 1021,9 30
20.04.2018 15:00:00 25,9 10,9 11 6 22 12 W 1022,5 30
20.04.2018 14:00:00 25,5 9,9 9 5 - - W 1022,9 10
20.04.2018 13:00:00 25,0 9,6 9 5 14 8 - 1023,4 10
20.04.2018 12:00:00 24,1 11,3 8 4 14 8 WSW 1023,5 10
20.04.2018 11:00:00 22,3 11,9 9 5 - - S 1023,6 10
20.04.2018 10:00:00 18,9 10,3 11 6 18 10 SSE 1023,6 30
20.04.2018 09:00:00 17,3 9,3 11 6 25 14 SSE 1023,9 30
20.04.2018 08:00:00 15,3 8,7 14 8 - - SSE 1024,0 30
20.04.2018 07:00:00 14,8 8,7 14 8 18 10 SSE 1023,9 40
20.04.2018 06:00:00 15,4 8,2 14 8 36 19 SSE 1023,8 40
20.04.2018 05:00:00 17,7 7,1 11 6 - - S 1024,0 40
20.04.2018 04:00:00 16,3 8,6 11 6 29 16 SSE 1024,3 40
20.04.2018 03:00:00 17,9 7,3 11 6 14 8 SSE 1024,3 40
20.04.2018 02:00:00 19,5 6,4 7 4 - - S 1024,5 40
20.04.2018 01:00:00 20,0 6,7 11 6 25 14 SE 1024,4 40
20.04.2018 00:00:00 21,5 6,2 11 6 22 12 SSE 1024,4 40
19.04.2018 23:00:00 21,6 6,2 7 4 - - S 1024,5 40
19.04.2018 22:00:00 22,6 5,9 7 4 14 8 S 1024,3 40
19.04.2018 21:00:00 23,3 6,0 11 6 18 10 S 1023,8 40
19.04.2018 20:00:00 25,2 6,6 11 6 - - SSW 1023,5 40
19.04.2018 19:00:00 26,2 6,3 15 8 29 16 SSW 1023,4 10
19.04.2018 18:00:00 27,0 6,0 18 10 29 16 SW 1023,4 10
19.04.2018 17:00:00 27,4 7,1 13 7 - - S 1023,6 10
19.04.2018 16:00:00 27,6 5,5 15 8 29 16 SSE 1024,0 10
19.04.2018 15:00:00 27,4 4,2 15 8 36 19 SSE 1024,5 10
19.04.2018 14:00:00 27,1 4,1 21 11 - - SSE 1024,8 10
19.04.2018 13:00:00 26,2 6,3 16 9 43 23 SSE 1025,2 10
19.04.2018 12:00:00 24,6 5,5 18 10 40 21 SSE 1025,9 10
19.04.2018 11:00:00 23,1 7,4 13 7 - - SSE 1026,4 10
19.04.2018 10:00:00 21,1 7,1 16 9 36 19 SSE 1026,6 10
19.04.2018 09:00:00 18,9 6,2 18 10 32 18 SE 1026,7 10
19.04.2018 08:00:00 17,6 5,5 16 9 - - SE 1026,9 10
19.04.2018 07:00:00 17,3 5,3 14 8 22 12 SSE 1026,9 45
19.04.2018 06:00:00 17,0 5,0 13 7 29 16 SSE 1026,9 10
19.04.2018 05:00:00 16,3 5,5 11 6 - - - 1027,2 45
19.04.2018 04:00:00 16,7 5,6 7 4 25 14 SE 1027,4 45
19.04.2018 03:00:00 16,1 6,2 11 6 14 8 SE 1027,8 10
19.04.2018 02:00:00 16,6 6,8 9 5 - - ESE 1028,0 10
19.04.2018 01:00:00 18,1 6,2 9 5 14 8 E 1028,1 10
19.04.2018 00:00:00 19,0 6,0 8 4 - - E - 10
18.04.2018 23:00:00 20,1 7,0 9 5 - - ESE 1028,3 10
18.04.2018 22:00:00 21,0 8,0 5 3 - - ESE - 10
18.04.2018 21:00:00 21,5 9,1 8 4 18 10 E 1027,3 10
18.04.2018 20:00:00 22,1 10,8 13 7 - - NE 1027,2 10
18.04.2018 19:00:00 23,5 10,2 15 8 25 14 NE 1027,5 10
18.04.2018 18:00:00 24,0 8,6 16 9 22 12 NE 1027,8 10
18.04.2018 17:00:00 23,9 9,4 15 8 - - NE 1028,2 10
18.04.2018 16:00:00 24,3 8,2 5 3 18 10 NE 1028,8 10
18.04.2018 15:00:00 23,5 7,6 8 4 18 10 ESE 1029,7 10
18.04.2018 14:00:00 23,3 6,8 4 2 - - - 1030,1 10
18.04.2018 13:00:00 21,8 6,6 4 2 25 14 - 1030,7 10
18.04.2018 12:00:00 20,5 7,1 9 5 32 18 ESE 1031,1 10
18.04.2018 11:00:00 18,7 7,1 11 6 - - ESE 1031,4 10
18.04.2018 10:00:00 16,0 8,3 9 5 25 14 - 1031,3 10

tt = Température de l'air
td = dewpoint
ff = Vitesse du vent
fx = gusts
dd = Direction du vent
ppp = reduced air pressure
vv = visibility

stations d'obs. à proximité